Flag for Slovakia Weather past 2 weeks in Prievidza, Slovakia

Now
62 °F

Passing clouds.


Feels Like: 62 °F
Forecast: 46 / 59 °F
Wind: N/A

Location: Prievidza

Current Time: Sep 21, 2014 at 10:42:14 PM

Latest Report: Sep 21, 2014 at 10:00 PM


Visibility: 13 mi

Pressure: 29.80 "Hg

Humidity: 88%

Dew point: 59 °F

Location of PrievidzaLocation

Historic Weather in Prievidza — Graph

°F

Prievidza temperature yesterday

Maximum temperature yesterday: 76 °F (at 2:00 PM)
Minimum temperature yesterday: 55 °F (at 6:00 AM)
Average temperature yesterday: 63 °F

Past Weeks' High & Low Weather Summary

 TemperatureHumidityPressure
High80 °F (Sep 9, 3:00 PM)97% (Sep 14, 5:00 AM)30.15 "Hg (Sep 14, 5:00 AM)
Low49 °F (Sep 17, 6:00 AM)43% (Sep 9, 3:00 PM)29.80 "Hg (Sep 21, 5:00 PM)
Average63 °F80%30.00 "Hg
* Reported Sep 6 10:00 PM — Sep 21 10:00 PM, Prievidza, Weather by CustomWeather, © 2014

Note: Actual official high and low records may vary slightly from our data, if they occured in-between our weather recording intervals... More about our weather records

Advertising

Prievidza weather history for previous 24 hours

 ConditionsComfort  
Time TempWeatherWind HumidityBarometerVisibility
10:00 PM
Sep 21
62 °FPassing clouds.N/A88%29.80 "Hg12 mi
9:00 PM63 °FPassing clouds.1 mph87%29.81 "Hg12 mi
8:00 PM65 °FPassing clouds.1 mph81%29.81 "Hg22 mi
7:00 PM66 °FLight rain. Overcast.N/A76%29.80 "Hg25 mi
6:00 PM67 °FPartly sunny.N/A74%29.80 "Hg25 mi
5:00 PM71 °FPartly sunny.2 mph64%29.80 "Hg28 mi
4:00 PM73 °FScattered clouds.N/A57%29.80 "Hg25 mi
3:00 PM73 °FScattered clouds.5 mph56%29.83 "Hg28 mi
2:00 PM76 °FScattered clouds.6 mph53%29.83 "Hg28 mi
1:00 PM72 °FScattered clouds.N/A61%29.85 "Hg19 mi
12:00 PM73 °FScattered clouds.5 mph63%29.85 "Hg16 mi
11:00 AM72 °FScattered clouds.3 mph66%29.86 "Hg12 mi
10:00 AM69 °FScattered clouds.3 mph77%29.88 "Hg12 mi
9:00 AM64 °FScattered clouds.2 mph89%29.89 "Hg7 mi
8:00 AM63 °FFog.3 mph95%29.88 "Hg4 mi
7:00 AM62 °FFog.2 mph96%29.89 "Hg2 mi
6:00 AM62 °FFog.N/A96%29.89 "Hg2 mi
5:00 AM61 °FFog.N/A97%29.90 "Hg3 mi
4:00 AM61 °FCool.No wind96%29.90 "Hg2 mi
3:00 AM61 °FRain showers. Overcast.No wind96%29.91 "Hg3 mi
2:00 AM61 °FDrizzle. Overcast.No wind96%29.91 "Hg2 mi
1:00 AM61 °FCool.No wind95%29.91 "Hg2 mi
12:00 AM61 °FLight rain. Overcast.No wind92%29.93 "Hg3 mi
11:00 PM
Sep 20
62 °FFog.No wind90%29.92 "Hg6 mi
10:00 PM64 °FOvercast.N/A87%29.92 "Hg7 mi
Weather by CustomWeather, © 2014

See weather overviewHow to use our weather pages